Regional Weather Roundup
Issued by NWS

Home | Current Version | Previous Version | Text Only | Print | Product List | Glossary Off
Versions: 1 2 3 4 5 6 7 8 9 10 11 12 13 14 15 16 17 18 19 20 21 22 23 24 25 26 27 28 29 30 31 32 33 34 35 36 37 38 39 40 41 42 43 44 45 46 47 48 49 50

000
ASUS43 KFSD 301302
RWRSD

WEATHER ROUNDUP FOR SOUTH DAKOTA
NATIONAL WEATHER SERVICE SIOUX FALLS SD
800 AM CDT SUN APR 30 2017

NOTE: "FAIR" INDICATES FEW OR NO CLOUDS BELOW 12,000 FEET WITH NO
SIGNIFICANT WEATHER AND/OR OBSTRUCTIONS TO VISIBILITY.


SDZ001>005-009-010-012>017-301400-
NORTHWEST AND NORTH CENTRAL SOUTH DAKOTA

CITY           SKY/WX    TMP DP  RH WIND       PRES   REMARKS
BUFFALO          N/A     32  22  66 W5        30.00S WCI  27
FAITH            N/A     37  27  67 CALM      30.07S
MOBRIDGE       SUNNY     37  24  59 CALM      30.07S
$$

SDZ012>016-024>037-041>051-057-063-072>074-301400-
SOUTHWEST AND SOUTH CENTRAL SOUTH DAKOTA

CITY           SKY/WX    TMP DP  RH WIND       PRES   REMARKS
RAPID CTY ARPT SUNNY     38  23  55 N8        30.06S
PIERRE         CLOUDY    33  24  69 NW5       30.07R WCI  29
CUSTER         SUNNY     29  17  61 NW3       30.04S
ELLSWORTH AFB  SUNNY     34  24  66 N10       30.06R WCI  26
PHILIP         CLOUDY    26  22  84 W5        30.08S WCI  20
PINE RIDGE     CLOUDY    25  23  92 CALM      30.05F
SPEARFISH      FAIR      34  19  55 CALM      30.07S
WINNER         FAIR      35  27  72 NW6       30.04F
$$

SDZ004>011-016>023-039-040-301400-
NORTHEAST SOUTH DAKOTA

CITY           SKY/WX    TMP DP  RH WIND       PRES   REMARKS
ABERDEEN       MOSUNNY   37  30  75 N5        30.09R
WATERTOWN      PTSUNNY   38  25  59 NE10      30.05R
BROOKINGS      CLOUDY    40  27  59 N10       30.00F
SISSETON         N/A     42  28  57 E6        30.09S
$$

SDZ017-020-022-023-036>040-048>070-301400-
SOUTHEAST SOUTH DAKOTA

CITY           SKY/WX    TMP DP  RH WIND       PRES   REMARKS
SIOUX FALLS    LGT RAIN  43  31  62 E17       29.97S
HURON          PTSUNNY   40  26  57 NE9       30.05S
CHAMBERLAIN    CLOUDY    40  28  62 N8        30.06R
MITCHELL       PTSUNNY   41  28  60 N12       30.03S
YANKTON        CLOUDY    39  34  81 N14       29.95S
$$

ABBREVIATIONS USED IN REMARKS
   TC - TEMPERATURE IN CELSIUS
  WCI - WIND CHILL INDEX
   HX - HEAT INDEX
  VSB - VISIBILITY




USA.gov is the U.S. government's official web portal to all federal, state and local government web resources and services.